Temp
4 5 5 5 5 5 5 5 5 5 5 5 5 5 5 5 5 5 5 5 5 4 5 5 5 5 5 5 4 4 3 4 4 4 4 4 4 4 4 4 4 4 4 5 5 5 5 5 5 5 5 5
4 4 4 4 4 5 5 5 5 5 5 5 5 5 5 5 5 5 5 5 5 5 4 4 4 4 5 5 4 4 4 4 4 4 4 4 4 4 4 4 4 4 4 4 4 5 5 5 5 5 5 5
4 4 4 4 4 4 4 4 4 4 4 4 4 4 4 4 4 4 4 4 4 4 4 4 4 4 4 4 4 4 4 4 4 4 4 4 4 4 4 4 4 4 4 4 4 4 4 4 4 4 4 4
4 4 4 4 4 4 4 4 4 4 4 4 4 3 3 3 3 3 3 3 3 4 4 4 4 4 4 4 4 4 4 4 4 4 4 4 4 4 4 4 4 4 4 4 3 4 4 4 4 4 4 4
3 3 3 3 3 3 3 3 3 3 3 3 3 3 2 2 2 2 2 2 2 3 3 3 4 4 4 4 4 4 4 4 4 4 4 4 4 4 4 4 4 4 3 3 3 3 3 3 3 3 3 3
3 3 3 3 3 3 4 3 3 3 3 3 2 2 2 1 1 1 1 1 2 2 2 3 3 3 3 4 4 4 4 4 4 4 4 4 4 4 4 4 3 3 3 3 3 3 3 3 3 3 3 3
3 3 3 3 3 3 3 3 3 3 2 2 2 1 1 1 1 1 1 1 1 2 2 2 3 3 3 3 3 3 3 3 4 4 4 4 4 4 4 3 3 3 3 3 2 2 2 2 2 2 3 3
3 3 3 3 3 3 3 3 3 2 2 2 2 2 1 1 1 1 1 1 1 1 2 2 2 2 3 3 3 3 3 3 3 4 4 4 4 4 4 3 3 3 3 2 2 2 2 2 2 2 2 2
3 3 3 3 3 3 3 2 2 2 2 2 2 2 2 2 1 1 1 1 1 1 2 2 2 2 2 2 3 3 3 3 3 3 4 4 4 4 3 3 3 2 2 2 2 2 2 2 1 1 1 2
3 3 3 3 3 3 3 3 2 2 2 2 2 2 2 2 2 2 1 1 1 2 2 2 2 2 2 2 2 3 3 3 3 3 3 4 4 3 3 3 2 2 2 2 2 2 2 2 1 1 1 1
2 3 3 3 3 3 3 3 2 2 2 2 2 2 2 2 2 2 2 2 2 2 2 2 2 2 2 2 2 2 3 3 3 3 3 3 4 3 3 3 2 2 1 1 1 1 1 2 2 1 1 1
2 2 3 3 3 3 3 3 2 2 2 2 2 2 1 2 2 2 2 2 2 2 2 2 2 2 2 2 2 2 2 3 3 3 3 3 3 3 3 3 3 2 1 1 1 1 1 1 2 2 1 1
2 2 2 2 2 2 2 2 2 2 2 2 2 2 2 2 2 2 2 2 2 2 2 2 2 2 2 2 2 2 2 2 3 3 3 3 3 3 3 3 3 2 1 1 2 2 1 1 2 2 1 1
2 2 2 2 2 2 2 2 2 2 2 2 2 2 1 1 1 2 2 2 2 1 1 1 2 2 2 2 2 2 2 2 2 2 3 3 3 3 3 2 3 2 2 1 1 1 1 1 2 2 2 1
2 2 2 2 2 2 2 2 1 1 2 1 1 1 1 1 1 1 1 1 1 1 1 1 1 1 1 1 1 2 2 2 2 2 2 2 2 2 2 2 2 2 1 1 1 1 1 1 1 1 1 1
1 1 1 1 1 1 1 1 1 1 1 1 1 1 1 1 1 1 1 1 1 1 1 1 1 1 1 1 1 1 1 1 1 2 2 2 2 2 2 1 1 1 1 1 1 1 1 1 0 0 0 0
1 1 1 1 1 1 1 1 1 1 1 1 1 1 1 1 1 1 1 1 1 1 1 1 1 1 1 1 1 1 1 1 1 1 1 2 2 2 1 1 1 1 1 1 0 0 0 1 0 0 -0 -0
0 1 1 1 1 1 1 1 1 1 1 1 1 1 1 1 1 1 1 1 1 1 1 1 1 1 1 1 1 1 1 1 1 1 1 1 1 1 1 1 1 1 1 0 0 -0 -0 0 1 0 -0 -1
0 0 1 1 1 1 1 1 1 1 1 1 1 1 1 1 1 1 1 1 1 1 1 1 1 1 1 1 1 1 1 1 1 1 1 1 1 1 1 1 0 0 0 0 -0 -0 -0 -0 0 0 -0 -1
-0 -0 0 0 0 1 1 1 1 1 1 1 0 0 0 0 0 0 0 0 0 0 0 0 1 1 1 1 1 1 0 0 0 0 0 0 0 0 0 0 0 -0 -0 -0 -1 -1 -1 -0 -0 -0 -1 -1
-1 -0 -0 -0 0 0 0 0 0 0 0 0 0 -0 -0 -0 -0 -0 -0 -0 0 0 0 0 0 0 0 0 0 0 0 0 -0 -0 -0 -0 -0 -0 -0 -0 -0 -1 -1 -1 -1 -1 -1 -1 -1 -1 -1 -1
-1 -0 -0 -0 -0 0 0 -0 -0 -0 -0 -0 -0 -0 -0 -0 -0 -0 -0 -0 -0 -0 -0 -0 -0 -0 -0 -0 -0 -0 -0 -0 -0 -0 -1 -1 -1 -1 -1 -1 -1 -1 -1 -1 -1 -1 -1 -1 -1 -1 -1 -1
-1 -1 -0 -0 -0 -0 -0 -0 -0 -0 -0 -0 -0 -1 -1 -1 -1 -1 -1 -1 -1 -1 -1 -1 -1 -1 -1 -1 -1 -1 -1 -1 -1 -1 -1 -1 -1 -1 -1 -1 -1 -1 -1 -1 -1 -1 -1 -1 -2 -2 -2 -2
-1 -1 -1 -1 -0 -0 -0 -0 -0 -0 -0 -0 -1 -1 -1 -1 -1 -1 -1 -1 -1 -1 -1 -1 -1 -1 -1 -1 -1 -1 -1 -1 -1 -1 -1 -1 -1 -1 -1 -1 -1 -2 -2 -2 -2 -2 -2 -2 -2 -2 -2 -2
-1 -1 -1 -1 -1 -1 -1 -1 -1 -1 -1 -1 -1 -1 -1 -1 -1 -1 -1 -1 -1 -2 -2 -2 -2 -2 -1 -1 -1 -1 -1 -1 -1 -2 -2 -2 -2 -2 -2 -2 -2 -2 -2 -2 -3 -3 -2 -3 -3 -3 -3 -3
-2 -2 -2 -2 -2 -2 -2 -1 -1 -2 -2 -2 -2 -2 -2 -2 -2 -2 -2 -2 -2 -2 -2 -2 -2 -2 -2 -2 -2 -2 -2 -2 -2 -2 -2 -2 -2 -2 -2 -2 -2 -3 -3 -3 -3 -3 -3 -3 -4 -4 -4 -3
-2 -2 -2 -2 -2 -2 -2 -2 -2 -2 -2 -2 -2 -2 -2 -2 -2 -2 -2 -2 -2 -2 -2 -2 -2 -2 -2 -2 -2 -2 -2 -2 -2 -2 -2 -2 -2 -2 -3 -3 -3 -3 -3 -3 -3 -3 -3 -4 -4 -4 -4 -4
-3 -3 -3 -3 -3 -3 -3 -2 -2 -2 -2 -2 -2 -2 -2 -2 -2 -2 -2 -2 -2 -2 -2 -2 -2 -2 -2 -2 -2 -2 -2 -2 -2 -2 -2 -3 -3 -3 -3 -3 -3 -3 -3 -4 -4 -4 -4 -4 -4 -4 -4 -4
-3 -3 -3 -3 -3 -3 -2 -2 -2 -2 -2 -2 -2 -2 -2 -2 -2 -2 -2 -2 -2 -2 -2 -2 -2 -2 -2 -2 -2 -2 -2 -2 -2 -2 -2 -3 -3 -3 -3 -3 -3 -4 -4 -4 -4 -4 -4 -4 -4 -4 -4 -4
-3 -3 -3 -3 -3 -3 -3 -3 -2 -2 -2 -2 -2 -2 -2 -2 -2 -2 -2 -2 -2 -2 -2 -2 -2 -2 -2 -2 -2 -2 -2 -2 -2 -2 -3 -3 -3 -3 -3 -3 -3 -4 -4 -4 -4 -4 -4 -4 -4 -4 -4 -4
-3 -3 -3 -3 -3 -3 -3 -3 -3 -3 -3 -3 -3 -3 -2 -2 -2 -2 -2 -2 -2 -2 -2 -2 -2 -2 -2 -2 -2 -3 -3 -3 -3 -3 -3 -3 -3 -3 -3 -3 -3 -4 -4 -4 -4 -5 -5 -5 -5 -5 -5 -5
Height
3169 3168 3167 3166 3166 3165 3164 3163 3163 3162 3162 3161 3161 3160 3159 3159 3159 3159 3159 3159 3159 3158 3158 3158 3158 3158 3158 3157 3156 3157 3157 3157 3158 3157 3158 3158 3158 3157 3157 3157 3157 3156 3156 3156 3156 3155 3154 3154 3154 3153 3153 3152
3166 3165 3164 3163 3162 3161 3160 3160 3159 3158 3157 3156 3156 3155 3155 3155 3154 3154 3154 3154 3155 3155 3155 3154 3154 3154 3154 3153 3153 3153 3154 3154 3154 3154 3154 3154 3154 3154 3154 3154 3154 3154 3153 3152 3152 3151 3151 3150 3150 3150 3149 3149
3163 3161 3160 3160 3159 3158 3157 3156 3155 3154 3152 3151 3151 3150 3150 3150 3150 3150 3150 3150 3150 3151 3151 3151 3151 3151 3150 3150 3150 3149 3150 3150 3150 3150 3150 3150 3150 3150 3149 3150 3150 3150 3150 3149 3148 3148 3147 3147 3146 3146 3146 3146
3159 3158 3157 3156 3155 3154 3153 3152 3151 3150 3148 3147 3146 3146 3146 3145 3146 3146 3146 3146 3146 3147 3147 3147 3147 3147 3147 3147 3147 3146 3146 3147 3147 3147 3146 3146 3146 3145 3145 3145 3145 3145 3146 3146 3145 3145 3144 3143 3143 3142 3142 3142
3156 3155 3154 3152 3151 3151 3150 3149 3148 3146 3145 3144 3143 3142 3142 3141 3142 3142 3142 3142 3143 3143 3143 3143 3143 3144 3144 3144 3144 3143 3143 3143 3143 3143 3142 3142 3142 3142 3141 3141 3140 3141 3142 3142 3141 3141 3140 3139 3139 3139 3138 3138
3154 3152 3151 3149 3148 3147 3146 3146 3145 3144 3143 3142 3140 3139 3139 3138 3138 3139 3139 3139 3139 3140 3140 3140 3140 3140 3140 3140 3140 3140 3140 3140 3140 3140 3139 3139 3139 3138 3137 3137 3136 3136 3137 3137 3137 3137 3136 3136 3135 3134 3134 3134
3151 3150 3148 3147 3145 3144 3143 3142 3142 3141 3140 3139 3138 3137 3137 3136 3136 3136 3136 3136 3136 3136 3137 3137 3137 3137 3137 3137 3137 3137 3137 3136 3136 3137 3136 3136 3135 3134 3133 3132 3132 3132 3133 3133 3132 3132 3132 3131 3131 3130 3130 3129
3148 3147 3146 3145 3143 3141 3140 3139 3138 3138 3137 3137 3136 3135 3134 3134 3133 3133 3133 3133 3133 3133 3134 3134 3134 3134 3133 3133 3133 3133 3133 3133 3133 3133 3133 3132 3132 3131 3130 3129 3129 3129 3129 3128 3128 3128 3126 3125 3125 3125 3125 3125
3146 3145 3144 3143 3141 3139 3138 3136 3135 3135 3134 3134 3133 3133 3132 3131 3131 3130 3130 3130 3130 3131 3131 3131 3131 3130 3130 3130 3130 3130 3130 3130 3130 3129 3129 3129 3129 3128 3127 3126 3127 3126 3125 3124 3124 3123 3121 3120 3120 3120 3121 3121
3143 3142 3141 3140 3139 3137 3136 3134 3133 3132 3131 3131 3130 3130 3129 3129 3128 3128 3127 3127 3127 3128 3128 3128 3127 3127 3127 3127 3127 3127 3126 3126 3126 3126 3126 3126 3126 3125 3124 3124 3124 3122 3120 3119 3119 3118 3117 3117 3117 3118 3118 3118
3140 3139 3138 3138 3136 3135 3134 3133 3131 3130 3129 3128 3127 3127 3126 3126 3126 3125 3125 3124 3124 3124 3124 3124 3124 3124 3124 3124 3124 3124 3123 3123 3123 3123 3123 3122 3122 3121 3121 3121 3119 3116 3115 3115 3114 3115 3115 3115 3115 3115 3115 3115
3138 3137 3136 3135 3134 3133 3132 3131 3129 3128 3127 3126 3125 3124 3123 3123 3123 3122 3122 3122 3122 3121 3121 3121 3121 3121 3121 3121 3120 3120 3120 3120 3119 3119 3119 3119 3118 3117 3117 3118 3115 3112 3112 3112 3112 3112 3112 3113 3113 3112 3112 3112
3135 3134 3133 3132 3131 3130 3129 3128 3127 3126 3125 3123 3122 3122 3121 3120 3120 3120 3119 3119 3119 3119 3118 3118 3118 3118 3118 3117 3117 3117 3117 3116 3116 3116 3115 3115 3115 3114 3114 3114 3113 3111 3110 3109 3109 3109 3109 3109 3109 3109 3108 3108
3133 3132 3131 3130 3128 3127 3127 3126 3124 3124 3122 3121 3120 3119 3118 3118 3117 3117 3117 3116 3116 3116 3116 3116 3115 3115 3115 3114 3114 3113 3113 3113 3113 3112 3112 3112 3111 3111 3110 3110 3110 3108 3107 3107 3106 3106 3106 3105 3105 3105 3104 3104
3130 3129 3128 3127 3126 3125 3124 3123 3122 3121 3120 3119 3118 3117 3116 3115 3115 3114 3114 3114 3113 3113 3113 3113 3112 3112 3112 3112 3111 3111 3110 3110 3109 3109 3109 3108 3108 3107 3106 3106 3106 3105 3104 3104 3103 3103 3103 3102 3101 3101 3101 3100
3128 3127 3126 3125 3124 3123 3122 3120 3119 3119 3118 3117 3116 3115 3114 3113 3112 3112 3111 3111 3110 3110 3110 3109 3109 3109 3109 3108 3108 3108 3107 3107 3106 3106 3105 3105 3104 3104 3103 3102 3102 3101 3101 3100 3099 3099 3099 3099 3098 3098 3098 3097
3126 3125 3123 3122 3121 3120 3119 3118 3117 3116 3115 3114 3114 3113 3112 3111 3110 3109 3109 3108 3108 3107 3107 3106 3106 3106 3105 3105 3104 3104 3104 3104 3103 3103 3102 3102 3101 3100 3100 3099 3098 3098 3097 3096 3096 3096 3096 3095 3095 3095 3095 3094
3124 3122 3121 3120 3119 3118 3116 3116 3114 3113 3112 3112 3111 3110 3109 3108 3107 3106 3106 3105 3105 3104 3104 3103 3103 3103 3102 3102 3101 3101 3100 3100 3100 3099 3099 3099 3098 3097 3096 3096 3095 3094 3094 3093 3092 3092 3092 3092 3092 3091 3091 3091
3121 3120 3119 3118 3116 3115 3114 3113 3112 3111 3110 3109 3108 3107 3107 3106 3105 3104 3103 3102 3102 3101 3101 3100 3100 3099 3099 3099 3098 3097 3097 3097 3096 3096 3096 3095 3095 3094 3094 3093 3092 3091 3091 3090 3089 3089 3089 3088 3088 3088 3087 3086
3119 3118 3116 3115 3114 3113 3112 3111 3110 3109 3108 3107 3106 3105 3104 3103 3102 3101 3100 3100 3099 3098 3098 3097 3097 3096 3096 3095 3095 3094 3094 3093 3093 3092 3092 3092 3091 3091 3090 3090 3089 3088 3088 3087 3086 3086 3085 3085 3084 3084 3083 3082
3117 3116 3114 3113 3112 3111 3109 3108 3107 3106 3105 3104 3103 3102 3101 3100 3099 3098 3098 3097 3096 3096 3095 3094 3094 3093 3093 3092 3092 3091 3091 3090 3090 3089 3089 3088 3088 3088 3087 3087 3086 3085 3084 3084 3083 3083 3082 3081 3081 3080 3080 3079
3115 3114 3112 3111 3110 3108 3107 3106 3105 3104 3103 3102 3101 3100 3099 3098 3097 3096 3095 3094 3093 3093 3092 3092 3091 3090 3090 3089 3088 3088 3087 3087 3086 3086 3085 3085 3084 3084 3083 3083 3083 3082 3081 3081 3080 3079 3078 3078 3077 3077 3076 3076
3113 3112 3110 3109 3107 3106 3105 3103 3102 3101 3100 3099 3098 3097 3096 3095 3094 3093 3092 3091 3091 3090 3089 3089 3088 3087 3087 3086 3085 3085 3084 3084 3083 3082 3082 3081 3081 3080 3080 3079 3079 3078 3078 3077 3076 3075 3075 3074 3073 3073 3072 3072
3112 3110 3108 3107 3105 3104 3102 3101 3100 3098 3097 3096 3095 3094 3093 3092 3091 3090 3090 3089 3088 3087 3087 3086 3085 3084 3084 3083 3082 3082 3081 3081 3080 3079 3079 3078 3077 3076 3076 3075 3075 3074 3073 3073 3072 3071 3071 3070 3070 3069 3069 3068
3109 3107 3106 3104 3103 3101 3100 3098 3097 3096 3095 3094 3093 3092 3091 3090 3089 3088 3087 3086 3085 3085 3084 3083 3082 3082 3081 3080 3079 3079 3078 3077 3077 3076 3076 3075 3074 3073 3072 3072 3071 3070 3069 3068 3068 3067 3067 3066 3066 3066 3065 3065
3107 3105 3103 3102 3101 3099 3098 3096 3095 3094 3092 3091 3090 3089 3088 3087 3086 3086 3085 3084 3083 3082 3082 3081 3080 3079 3078 3077 3077 3076 3075 3074 3074 3073 3072 3072 3071 3070 3069 3068 3068 3067 3066 3065 3064 3063 3062 3062 3062 3062 3061 3061
3106 3104 3102 3101 3099 3098 3097 3095 3094 3092 3091 3090 3089 3088 3087 3086 3085 3084 3083 3082 3081 3080 3079 3079 3078 3077 3076 3075 3074 3073 3072 3071 3071 3070 3069 3068 3067 3066 3066 3065 3064 3063 3062 3061 3061 3060 3059 3058 3058 3057 3057 3057
3105 3103 3102 3100 3099 3097 3096 3095 3093 3092 3090 3089 3088 3087 3086 3084 3084 3083 3082 3081 3080 3079 3078 3077 3076 3075 3074 3073 3072 3071 3070 3069 3068 3067 3066 3065 3064 3063 3062 3061 3060 3060 3059 3058 3057 3056 3054 3054 3053 3052 3052 3052
3105 3103 3101 3100 3098 3097 3095 3094 3092 3091 3089 3088 3086 3085 3084 3083 3083 3082 3081 3080 3079 3078 3077 3076 3075 3074 3073 3072 3070 3069 3068 3067 3066 3065 3064 3063 3062 3061 3060 3058 3057 3056 3056 3055 3054 3052 3051 3050 3048 3047 3047 3047
3104 3102 3101 3099 3097 3096 3094 3093 3091 3089 3088 3087 3085 3084 3083 3083 3082 3081 3080 3079 3078 3077 3076 3075 3074 3073 3072 3071 3069 3068 3067 3066 3065 3064 3062 3061 3060 3059 3057 3056 3054 3053 3053 3051 3050 3049 3047 3046 3044 3042 3042 3041
3103 3101 3100 3098 3096 3095 3094 3092 3091 3089 3088 3086 3085 3084 3083 3082 3081 3080 3079 3078 3077 3076 3075 3074 3073 3072 3071 3070 3068 3067 3066 3065 3063 3062 3061 3059 3058 3056 3055 3053 3052 3050 3049 3048 3047 3046 3044 3042 3041 3039 3038 3037
Wind_Speed
39 41 42 43 44 45 46 46 47 47 48 48 48 48 48 47 46 44 43 41 39 38 37 37 37 36 36 38 38 35 33 30 31 34 36 38 38 38 39 37 36 36 37 38 38 38 38 38 38 37 36 35
36 37 37 38 39 40 41 42 43 44 46 47 47 48 48 48 48 47 45 43 41 40 38 38 37 37 37 37 37 34 31 29 29 30 32 35 39 42 43 41 38 36 35 36 38 39 39 39 39 40 39 38
34 35 36 36 36 36 37 38 39 41 42 44 45 45 45 45 45 45 44 43 42 41 39 39 38 37 37 37 36 34 30 28 28 29 30 32 35 40 43 44 42 38 34 34 36 37 39 39 39 40 40 39
32 33 34 34 33 33 33 34 35 36 37 39 40 40 41 41 40 40 40 40 40 39 39 38 38 37 36 36 35 34 32 29 27 28 30 32 35 37 40 42 43 41 38 36 35 35 36 37 37 38 39 38
30 31 31 32 32 31 30 30 30 30 30 30 31 32 34 35 36 35 36 36 36 36 37 37 37 37 36 36 35 34 33 31 30 30 32 33 34 35 37 38 40 42 41 40 38 36 35 35 35 36 37 38
29 29 30 30 31 31 30 29 28 27 26 24 24 25 27 29 31 31 32 32 33 33 34 34 34 35 35 35 35 35 34 32 31 32 34 34 33 35 36 36 37 38 40 40 40 40 38 37 37 36 37 38
29 29 29 29 30 31 30 29 28 26 25 24 23 24 25 25 27 28 29 29 30 30 30 31 31 32 33 34 34 34 33 32 31 31 33 34 35 38 37 35 35 36 38 40 42 43 43 43 43 41 41 41
28 29 29 28 29 29 30 29 28 27 26 25 24 24 24 25 25 27 28 28 28 28 28 28 28 29 29 31 32 33 33 32 32 32 33 35 37 41 36 32 34 35 37 38 40 40 40 42 45 46 43 40
28 28 28 28 28 28 28 29 28 28 27 27 26 25 25 25 25 26 28 28 28 28 27 27 27 27 27 27 29 30 32 32 33 33 34 35 37 40 36 32 34 35 35 36 37 36 34 34 37 39 39 37
27 27 27 26 26 26 26 27 27 27 27 27 27 27 27 26 26 26 26 28 29 29 29 28 27 27 26 26 26 27 29 30 31 32 33 34 36 38 35 35 37 37 37 36 34 33 32 31 29 28 30 32
27 26 26 25 24 24 24 24 25 25 26 26 27 27 27 27 27 26 26 26 27 29 30 30 29 28 27 27 26 26 26 27 28 29 30 32 35 35 32 33 35 34 35 35 33 31 32 32 30 30 29 29
27 26 25 24 24 23 23 23 23 23 24 25 26 26 27 27 27 27 27 27 26 27 28 29 29 29 28 27 27 26 26 26 27 27 28 29 32 34 32 33 36 33 30 31 32 31 30 31 32 33 31 28
27 26 25 25 24 23 23 22 22 21 21 23 24 25 26 26 26 27 27 27 27 27 27 27 28 28 28 28 28 27 27 27 27 27 27 28 29 32 32 33 38 38 34 31 30 29 29 31 32 30 28 27
27 26 25 25 24 24 23 22 21 20 20 21 22 22 24 25 26 26 27 27 27 27 27 27 27 28 28 28 28 28 28 28 28 28 28 28 29 31 32 32 35 37 36 33 31 29 29 29 30 28 27 26
26 26 25 25 25 24 23 22 21 20 19 20 20 21 22 24 25 25 26 26 27 27 27 27 27 27 28 28 28 28 28 28 28 29 28 29 30 31 32 32 33 34 35 34 33 31 29 27 25 24 24 24
25 25 25 24 24 24 24 23 22 21 20 19 19 20 20 22 23 24 25 25 26 27 27 27 26 27 27 28 29 28 28 28 28 28 28 29 30 31 31 32 33 35 35 34 32 30 28 27 24 23 22 22
25 24 24 24 24 24 23 23 22 22 21 20 19 19 19 20 22 23 23 24 25 26 26 27 26 26 26 27 28 28 28 29 28 28 28 28 29 29 30 31 32 33 32 30 29 28 27 28 26 24 23 23
24 24 24 24 23 23 23 22 22 22 22 21 20 20 19 20 20 21 22 23 24 25 26 26 26 26 26 26 26 27 28 29 29 29 29 29 29 29 29 29 29 30 29 28 27 28 28 29 28 27 25 24
22 22 22 22 22 22 22 21 21 21 21 21 21 20 20 20 20 21 21 22 23 24 25 25 26 26 26 26 26 26 27 28 28 29 29 29 29 29 29 28 28 28 27 27 28 29 30 30 31 30 27 25
20 20 21 21 21 21 21 21 21 21 21 21 21 21 20 20 20 21 21 22 22 23 24 24 25 25 26 26 26 27 27 27 27 28 29 29 30 30 29 29 28 28 27 26 27 28 30 31 31 31 30 28
18 19 20 20 21 21 21 21 21 21 21 21 21 21 21 20 20 21 21 22 22 23 23 24 24 25 25 25 26 26 27 27 26 27 27 28 29 30 30 30 30 29 29 28 27 27 28 30 31 32 32 31
19 19 19 20 20 21 21 21 22 22 22 22 22 22 22 21 21 21 21 21 22 22 23 23 24 24 25 25 25 26 26 27 27 27 27 27 28 29 30 31 31 32 32 32 31 30 30 30 31 32 33 32
20 20 20 20 20 20 20 21 21 21 21 21 21 21 21 22 22 22 22 22 22 22 23 23 23 24 24 25 25 25 26 26 27 27 27 28 28 29 29 30 31 32 33 34 34 34 34 34 33 32 32 32
20 20 19 19 19 19 19 20 20 19 19 19 19 20 20 20 21 21 22 22 22 23 23 23 23 23 24 24 25 25 25 26 26 27 28 28 29 29 30 30 31 31 32 33 34 34 35 35 35 34 34 33
20 19 19 18 18 18 18 18 18 18 18 18 18 18 18 18 19 19 20 20 21 21 22 22 23 23 23 24 24 25 25 25 26 26 27 27 28 29 30 30 30 30 31 32 32 33 33 33 34 35 35 35
19 19 18 17 17 17 17 17 16 16 16 16 16 16 16 16 16 16 17 17 17 18 19 19 20 21 21 22 22 23 24 25 25 26 26 27 27 28 29 29 29 30 31 32 32 33 34 34 35 35 36 37
17 16 16 15 14 14 14 13 13 13 12 12 12 12 12 11 12 12 13 13 14 14 15 15 15 16 17 17 18 19 20 21 22 23 24 25 26 27 28 28 29 29 30 31 32 34 35 35 35 36 37 37
14 13 13 12 11 10 10 9 8 8 7 7 8 8 9 9 10 10 11 11 11 12 12 12 12 13 13 14 14 15 16 17 18 19 20 21 23 24 26 27 28 29 30 31 32 34 35 36 37 39 39 38
11 11 10 9 8 8 7 7 7 7 7 8 9 9 9 10 10 10 10 10 11 11 11 11 12 12 12 13 13 14 14 15 16 17 17 18 19 21 23 24 26 27 29 30 32 33 35 36 38 40 40 40
10 9 9 9 9 9 9 9 9 9 9 9 9 9 9 9 10 10 10 10 11 11 11 12 12 13 13 13 14 14 14 15 16 16 17 18 19 20 21 22 24 25 26 28 30 32 33 35 37 39 39 40
11 10 10 10 10 10 10 10 9 9 9 9 9 8 9 9 9 10 10 10 11 11 12 12 13 13 13 14 15 15 16 16 17 17 18 19 20 20 21 22 23 25 26 27 28 29 31 33 34 36 37 38
Wind_Direction
275 275 275 275 275 275 275 274 274 274 273 272 272 273 273 273 273 273 273 272 271 271 272 273 273 273 273 273 276 277 279 279 276 273 268 267 273 275 276 275 275 275 273 270 268 268 268 269 269 268 269 270
280 281 281 281 280 280 279 279 278 277 276 274 273 273 273 272 272 272 272 271 270 270 270 270 271 272 273 274 277 278 276 274 275 276 271 269 270 270 271 272 273 275 276 274 270 268 268 268 268 269 268 268
284 285 285 285 284 284 283 283 281 279 277 275 274 273 273 272 272 272 271 271 270 269 268 268 268 270 271 274 276 278 278 275 273 272 271 270 269 267 267 267 269 271 274 277 275 271 270 270 270 270 270 270
287 288 288 288 288 287 287 286 284 281 278 276 275 274 273 272 272 271 271 270 270 269 269 268 267 267 269 271 274 277 279 278 274 270 269 269 269 268 268 267 267 268 270 274 277 276 274 273 273 273 273 272
292 292 292 292 291 291 291 291 289 285 282 280 280 279 275 273 272 272 272 271 270 270 270 269 268 267 267 268 270 273 276 278 275 271 268 266 268 270 269 269 270 270 270 271 273 275 274 275 276 275 274 273
295 295 294 293 293 293 293 294 292 289 287 287 289 290 286 279 275 274 273 273 272 271 271 271 270 269 268 269 270 271 274 276 276 276 272 269 271 271 269 269 272 273 272 270 270 270 271 275 278 276 276 276
298 297 296 295 294 295 295 295 294 292 290 292 295 297 295 289 281 277 276 276 274 273 272 273 273 272 271 270 271 271 272 273 274 276 276 276 275 268 267 269 272 274 274 272 270 271 272 273 273 273 276 277
299 298 297 297 296 296 295 295 295 293 291 291 293 295 296 294 288 281 278 277 276 275 273 274 275 275 275 273 272 271 271 271 272 273 273 277 276 268 267 269 270 274 276 276 275 273 271 269 268 268 271 274
299 299 299 299 298 296 295 295 294 293 292 290 290 290 290 291 290 286 281 278 277 276 275 274 275 276 276 275 274 273 273 272 272 273 272 274 275 271 268 270 274 277 277 277 274 268 265 265 267 267 268 268
299 299 298 298 298 297 296 295 293 292 291 289 287 285 286 287 288 288 285 281 278 277 276 276 276 276 277 276 276 276 275 274 274 274 274 273 272 273 272 273 275 272 269 270 269 265 264 268 271 273 275 272
299 298 297 298 298 298 298 297 295 293 290 288 285 283 282 283 284 285 284 283 281 278 277 277 278 278 278 277 277 277 276 275 275 274 275 273 272 274 273 269 266 260 258 261 265 268 268 271 279 284 286 284
298 298 298 299 300 300 301 301 299 296 292 288 285 284 282 281 281 282 282 283 282 281 279 278 278 279 279 279 277 277 276 275 275 274 274 274 274 275 272 266 264 267 271 272 276 280 277 280 288 291 289 286
299 299 300 299 300 301 303 303 303 300 296 291 287 284 282 281 281 281 281 282 282 282 281 280 279 279 278 278 278 277 276 275 275 275 274 274 274 275 274 270 268 273 281 286 289 289 286 287 290 291 290 285
299 300 300 299 298 299 301 302 303 303 300 294 290 287 283 282 281 281 281 281 282 282 282 282 281 281 279 278 278 277 276 276 275 275 274 274 274 275 275 274 272 272 278 284 287 289 288 287 287 287 285 282
299 299 299 298 297 297 297 298 300 302 301 298 294 290 286 284 282 281 280 280 281 281 282 282 282 281 281 279 278 277 276 275 275 275 274 274 273 274 274 273 272 272 274 279 283 287 287 286 287 285 282 278
299 299 298 298 297 296 296 296 297 297 298 298 296 293 290 287 285 283 282 281 280 280 280 281 281 281 280 280 280 279 277 275 274 273 274 273 273 273 274 272 272 273 275 278 281 283 282 283 284 281 280 279
299 299 298 298 297 297 296 296 296 296 295 295 294 293 292 289 287 285 284 283 282 281 280 280 280 279 279 279 280 280 279 277 275 274 273 273 273 273 273 273 274 276 277 277 277 277 276 278 278 274 275 276
299 299 298 298 297 296 296 296 297 297 296 295 293 291 291 289 288 287 286 284 283 282 281 281 280 280 279 278 278 278 278 278 277 276 274 273 272 273 273 274 275 276 278 277 274 273 272 274 274 270 270 273
300 299 299 298 298 297 297 297 297 297 296 296 295 292 290 288 287 286 286 285 284 284 284 283 282 281 280 279 278 277 276 276 276 276 275 274 273 272 272 273 274 274 275 274 272 272 271 272 272 266 262 262
299 299 299 298 298 298 298 298 298 297 296 295 295 293 292 289 287 286 285 285 284 284 285 285 284 283 283 282 280 279 277 276 275 275 275 274 273 272 271 271 272 272 271 270 269 270 269 268 268 263 259 258
297 296 296 296 296 296 296 296 296 296 295 295 295 294 294 292 291 289 287 286 285 284 284 284 285 285 284 284 283 282 280 279 277 276 275 274 274 273 272 271 271 270 269 268 267 267 267 266 265 264 264 263
298 296 295 293 293 292 292 292 291 292 292 293 293 294 294 294 294 293 291 289 288 286 285 284 284 284 284 284 284 283 283 283 282 280 278 276 276 275 274 273 272 271 270 269 268 267 267 268 268 267 267 265
302 299 297 294 292 290 290 290 290 290 290 291 292 293 294 295 295 295 294 293 291 290 289 287 286 285 285 284 284 284 284 284 284 284 283 281 280 279 278 277 275 274 273 272 271 271 269 269 269 269 269 267
303 300 297 295 294 293 293 293 294 294 295 295 296 296 296 295 295 295 295 295 294 294 292 291 290 289 288 287 286 285 285 284 283 283 283 283 283 283 282 282 281 279 276 274 275 275 274 272 272 273 274 274
305 303 302 301 300 300 300 300 301 301 302 302 303 303 303 302 301 300 299 298 297 296 295 294 293 292 291 290 290 289 288 287 286 285 284 283 283 284 284 285 285 284 281 278 277 278 278 277 277 278 279 279
309 308 308 308 308 306 305 305 305 307 308 309 310 310 310 308 307 306 305 304 303 302 300 299 298 297 296 295 294 293 292 291 289 288 287 286 285 285 285 286 285 285 283 279 277 277 278 280 280 279 279 278
310 310 311 311 311 310 310 310 311 314 315 315 317 318 319 320 321 321 321 320 319 318 316 314 313 310 308 306 304 301 299 298 296 294 292 291 290 288 287 287 286 285 284 282 280 279 279 280 279 278 277 276
312 312 314 315 316 316 317 320 322 327 332 337 344 347 348 351 351 349 348 345 342 341 339 336 334 330 327 325 321 318 315 312 310 307 304 300 298 295 293 291 289 288 287 286 285 283 282 280 278 277 277 276
315 315 317 321 324 327 332 339 346 354 2 5 6 5 5 5 3 1 359 357 354 352 351 349 347 344 342 339 336 333 330 327 325 321 318 315 310 307 303 299 296 292 290 288 286 284 284 283 282 281 281 279
317 317 322 328 333 339 344 347 351 355 357 358 358 358 358 356 356 357 355 354 352 350 349 347 345 344 341 339 337 335 333 330 328 326 324 322 319 316 313 309 305 301 298 294 291 288 287 286 285 285 284 284
319 318 322 327 330 333 336 336 337 339 340 340 342 341 341 342 343 344 344 343 342 341 340 340 338 337 336 334 333 331 330 328 326 325 324 321 319 317 315 312 310 307 305 302 299 296 294 291 290 289 288 288